Location: ??????
(42.0089°N, 44.3281°E)
Time: 23:59:34
(UTC+00:00)

N. Korean satellite - Visible Passes

Search period start: 26 January 2022 00:00
Search period end: 05 February 2022 00:00
Orbit: 447 x 490 km, 97.3° (Epoch: 26 January)

Date Brightness Start Highest point End Pass type
(mag) Time Alt. Az. Time Alt. Az. Time Alt. Az.
26 Jan 10.1 01:09:36 10° ENE 01:09:39 10° ENE 01:09:39 10° ENE visible
26 Jan 6.8 02:40:25 10° N 02:49:20 - SSW 02:43:42 46° WNW visible
27 Jan 6.8 02:11:08 10° NNE 02:19:49 - S 02:14:38 68° E visible
28 Jan 8.6 01:42:17 10° NE 01:45:28 28° E 01:45:33 28° E visible
28 Jan 8.0 03:15:50 10° NNW 03:18:24 18° WNW 03:19:38 16° W visible
29 Jan 9.8 01:14:23 10° ENE 01:16:02 13° E 01:16:30 12° E visible
29 Jan 6.9 02:45:56 10° N 02:49:21 40° WNW 02:50:35 29° WSW visible
30 Jan 6.5 02:16:31 10° NNE 02:20:10 82° E 02:21:34 36° S visible
31 Jan 8.3 01:47:32 10° NNE 01:50:51 32° E 01:52:37 21° SE visible
31 Jan 8.2 03:21:25 10° NNW 03:23:42 16° WNW 03:25:59 10° WSW visible
01 Feb 9.6 01:19:18 10° ENE 01:21:23 15° E 01:23:27 10° SE visible
01 Feb 7.2 02:51:19 10° N 02:54:37 34° WNW 02:57:55 10° SW visible
02 Feb 6.4 02:21:47 10° N 02:25:25 85° WNW 02:29:00 10° SSW visible
03 Feb 8.0 01:52:40 10° NNE 01:56:05 38° E 01:59:26 10° SSE visible
03 Feb 8.3 03:26:54 10° NNW 03:28:51 14° WNW 03:30:48 10° W visible
04 Feb 9.5 01:24:11 10° NE 01:26:35 17° E 01:28:57 10° SE visible
04 Feb 7.4 02:56:35 10° N 02:59:46 29° WNW 03:02:55 10° SW visible
